FW9469 Weather Reports


time (UTC)temp
C
wind
direction
speed
KPH
gust
KPH
rain 1hr
cm
rain 24hr
cm
rain mn
cm
humidity
%
barometer
mb
20260504081603 7 0 0.0 0.0 0.00 0.00 0.00 79 1017.5
20260504044553 11 0 0.0 4.8 0.00 0.00 0.00 65 1017.8
20260504043053 11 177 1.6 6.4 0.00 0.00 0.00 64 1017.5
20260504041551 11 196 3.2 8.0 0.00 0.00 0.00 65 1017.7
20260504034601 12 217 1.6 6.4 0.00 0.00 0.00 62 1017.7
20260504033128 12 215 1.6 6.4 0.00 0.00 0.00 62 1017.7
20260504031603 12 211 3.2 11.3 0.00 0.00 0.00 60 1017.7
20260504030104 13 217 3.2 6.4 0.00 0.00 0.00 60 1017.6
20260504024552 13 0 0.0 6.4 0.00 0.00 0.00 60 1017.6
20260504023102 13 198 1.6 6.4 0.00 0.00 0.00 58 1017.4
20260504021559 14 174 3.2 8.0 0.00 0.00 0.00 56 1017.2
20260504020100 14 0 1.6 6.4 0.00 0.00 0.00 56 1017.0
20260504014552 14 192 1.6 8.0 0.00 0.00 0.00 55 1016.7
20260504013107 15 235 1.6 9.7 0.00 0.00 0.00 55 1016.5
20260504011551 15 0 1.6 4.8 0.00 0.00 0.00 53 1016.4
20260504010109 16 172 1.6 8.0 0.00 0.00 0.00 50 1016.4
20260504004610 16 0 1.6 4.8 0.00 0.00 0.00 48 1016.3
20260504003054 17 0 1.6 8.0 0.00 0.00 0.00 47 1016.0
20260504001604 17 176 1.6 8.0 0.00 0.00 0.00 46 1015.8
20260504000058 18 148 1.6 8.0 0.00 0.00 0.00 45 1015.7
20260503234553 18 236 1.6 12.9 0.00 0.00 0.00 44 1015.6
20260503233059 19 146 3.2 14.5 0.00 0.00 0.00 43 1015.6
20260503231555 19 170 3.2 16.1 0.00 0.00 0.00 41 1015.6
20260503224550 20 194 4.8 16.1 0.00 0.00 0.00 39 1015.8
20260503223058 20 155 6.4 20.9 0.00 0.00 0.00 37 1015.8
20260503221552 20 190 4.8 19.3 0.00 0.00 0.00 38 1015.9
20260503220054 21 145 4.8 16.1 0.00 0.00 0.00 37 1016.1
20260503214554 20 0 8.0 24.1 0.00 0.00 0.00 37 1016.0
20260503213103 20 129 3.2 19.3 0.00 0.00 0.00 36 1016.2
20260503211551 20 165 8.0 19.3 0.00 0.00 0.00 36 1016.3
20260503210100 20 159 6.4 25.7 0.00 0.00 0.00 34 1016.5
20260503204552 20 161 8.0 22.5 0.00 0.00 0.00 38 1016.7
20260503203101 20 142 4.8 16.1 0.00 0.00 0.00 37 1016.9
20260503201552 20 180 6.4 16.1 0.00 0.00 0.00 36 1017.3
20260503200100 20 186 3.2 19.3 0.00 0.00 0.00 38 1017.6
20260503194551 20 141 8.0 22.5 0.00 0.00 0.00 40 1017.9
20260503193101 19 138 6.4 19.3 0.00 0.00 0.00 39 1018.2
20260503191608 19 163 8.0 25.7 0.00 0.00 0.00 41 1018.3
20260503190054 18 152 16.1 22.5 0.00 0.00 0.00 40 1018.6
20260503184601 18 246 11.3 22.5 0.00 0.00 0.00 40 1018.9
20260503183112 18 88 8.0 24.1 0.00 0.00 0.00 41 1019.0
20260503181555 18 227 3.2 19.3 0.00 0.00 0.00 41 1019.0
20260503180055 17 0 3.2 16.1 0.00 0.00 0.00 44 1019.0
20260503174548 17 163 9.7 16.1 0.00 0.00 0.00 44 1019.3
20260503173113 17 319 6.4 14.5 0.00 0.00 0.00 44 1019.5
20260503171554 17 123 1.6 12.9 0.00 0.00 0.00 47 1019.7
20260503120108 5 0 0.0 1.6 0.00 0.00 0.00 90 1020.5
20260503100104 3 0 0.0 0.0 0.00 0.00 0.00 90 1018.7